Galliano, LA

3:34 PM CDT on March 29, 2017 (GMT -0500)
Galliano

Weather History for KGAO - February, 2013

Change the Weather History Date:

Saturday, February 9, 2013

  Actual Average (KHUM) Record (KHUM)
Temperature  
Mean Temperature 64 °F -  
Max Temperature 69 °F 62 °F 82 °F (1932)
Min Temperature 59 °F 40 °F 20 °F (1933)
Degree Days  
Heating Degree Days 1    
Growing Degree Days 14 (Base 50)    
Moisture  
Dew Point 59 °F    
Average Humidity 83    
Maximum Humidity 88    
Minimum Humidity 73    
Precipitation  
Precipitation 0.00 in - - ()
Sea Level Pressure  
Sea Level Pressure 30.13 in    
Wind  
Wind Speed 11 mph (ENE)    
Max Wind Speed 15 mph    
Max Gust Speed 22 mph    
Visibility 10 miles    
Events      
Averages and records for this station are not official NWS values.
T = Trace of Precipitation, MM = Missing Value Source: NWS Daily Summary

Daily Weather History Graph

Daily Weather History Graph

Search for Another Location

Airport or City:

Trip Planner

Search our weather history database for the weather conditions in past years. The results will help you decide how hot, cold, wet, or windy it might be!

Date:

Astronomy

Feb. 09, 2013 Rise Set
Actual Time 6:44 AM CST 5:46 PM CST
Civil Twilight 6:20 AM CST 6:10 PM CST
Nautical Twilight 5:52 AM CST 6:38 PM CST
Astronomical Twilight 5:24 AM CST 7:06 PM CST
Moon 5:57 AM CST (2/9) 5:26 PM CST (2/9)
Length of Visible Light 11h 50m
Length of Day
11h 01m
Waning Crescent, 0% of the Moon is Illuminated
Feb 9
Waning Crescent
Feb 10
New
Feb 17
First Quarter
Feb 25
Full
Mar 4
Last Quarter

Hourly Weather History & Observations

Time (CST) Temp. Dew Point Humidity Pressure Visibility Wind Dir Wind Speed Gust Speed Precip Events Conditions
12:15 AM 59.0 °F 55.4 °F 88% 30.15 in 10.0 mi North 10.4 mph - N/A   Overcast
12:35 AM 59.0 °F 55.4 °F 88% 30.15 in 10.0 mi North 12.7 mph - N/A   Overcast
12:55 AM 59.0 °F 55.4 °F 88% 30.15 in 10.0 mi NNE 11.5 mph - N/A   Overcast
1:15 AM 59.0 °F 55.4 °F 88% 30.14 in 10.0 mi North 15.0 mph - N/A   Overcast
1:35 AM 59.0 °F 55.4 °F 88% 30.14 in 10.0 mi North 9.2 mph 17.3 mph N/A   Overcast
1:55 AM 59.0 °F 55.4 °F 88% 30.13 in 10.0 mi North 13.8 mph - N/A   Overcast
2:15 AM 59.0 °F 55.4 °F 88% 30.13 in 10.0 mi NNE 11.5 mph - N/A   Overcast
2:35 AM 59.0 °F 55.4 °F 88% 30.14 in 10.0 mi NNE 13.8 mph 20.7 mph N/A   Overcast
2:55 AM 59.0 °F 53.6 °F 82% 30.14 in 10.0 mi NE 13.8 mph 19.6 mph N/A   Overcast
3:15 AM 59.0 °F 53.6 °F 82% 30.15 in 10.0 mi NNE 10.4 mph - N/A   Overcast
3:35 AM 59.0 °F 53.6 °F 82% 30.14 in 10.0 mi NNE 13.8 mph 18.4 mph N/A   Overcast
3:55 AM 59.0 °F 53.6 °F 82% 30.15 in 10.0 mi NNE 11.5 mph 16.1 mph N/A   Overcast
4:15 AM 59.0 °F 53.6 °F 82% 30.14 in 10.0 mi NNE 10.4 mph 18.4 mph N/A   Overcast
4:35 AM 59.0 °F 53.6 °F 82% 30.15 in 10.0 mi NNE 9.2 mph 19.6 mph N/A   Overcast
4:55 AM 59.0 °F 53.6 °F 82% 30.15 in 10.0 mi NNE 11.5 mph 16.1 mph N/A   Overcast
5:15 AM 59.0 °F 53.6 °F 82% 30.15 in 10.0 mi NNE 10.4 mph - N/A   Overcast
5:35 AM 59.0 °F 53.6 °F 82% 30.16 in 10.0 mi NE 9.2 mph - N/A   Overcast
5:55 AM 59.0 °F 55.4 °F 88% 30.16 in 10.0 mi NE 8.1 mph - N/A   Overcast
6:15 AM 59.0 °F 55.4 °F 88% 30.17 in 10.0 mi NNE 9.2 mph - N/A   Overcast
6:35 AM 59.0 °F 55.4 °F 88% 30.17 in 10.0 mi NE 10.4 mph - N/A   Overcast
6:55 AM 59.0 °F 55.4 °F 88% 30.17 in 10.0 mi NE 9.2 mph - N/A   Overcast
7:15 AM 59.0 °F 55.4 °F 88% 30.18 in 10.0 mi NE 9.2 mph - N/A   Overcast
7:35 AM 59.0 °F 55.4 °F 88% 30.18 in 10.0 mi NNE 8.1 mph - N/A   Overcast
7:55 AM 60.8 °F 55.4 °F 82% 30.19 in 10.0 mi NNE 6.9 mph - N/A   Overcast
8:15 AM 60.8 °F 55.4 °F 82% 30.19 in 10.0 mi ENE 9.2 mph 17.3 mph N/A   Overcast
8:35 AM 62.6 °F 57.2 °F 82% 30.19 in 10.0 mi ENE 10.4 mph - N/A   Overcast
8:55 AM 62.6 °F 57.2 °F 82% 30.19 in 10.0 mi ENE 11.5 mph 17.3 mph N/A   Overcast
9:15 AM 62.6 °F 57.2 °F 82% 30.20 in 10.0 mi NE 10.4 mph 16.1 mph N/A   Overcast
9:35 AM 62.6 °F 57.2 °F 82% 30.20 in 10.0 mi ENE 11.5 mph - N/A   Overcast
9:55 AM 64.4 °F 57.2 °F 77% 30.20 in 10.0 mi NE 12.7 mph - N/A   Overcast
10:15 AM 64.4 °F 59.0 °F 83% 30.20 in 10.0 mi ENE 13.8 mph 17.3 mph N/A   Mostly Cloudy
10:35 AM 64.4 °F 59.0 °F 83% 30.20 in 10.0 mi ENE 10.4 mph - N/A   Mostly Cloudy
10:55 AM 66.2 °F 59.0 °F 78% 30.20 in 10.0 mi ENE 13.8 mph 17.3 mph N/A   Overcast
11:15 AM 66.2 °F 59.0 °F 78% 30.19 in 10.0 mi ENE 12.7 mph - N/A   Overcast
11:35 AM 68.0 °F 59.0 °F 73% 30.18 in 10.0 mi ENE 10.4 mph - N/A   Overcast
11:55 AM 66.2 °F 59.0 °F 78% 30.18 in 10.0 mi ENE 10.4 mph 16.1 mph N/A   Overcast
12:15 PM 68.0 °F 59.0 °F 73% 30.17 in 10.0 mi ENE 12.7 mph 18.4 mph N/A   Overcast
12:35 PM 68.0 °F 59.0 °F 73% 30.16 in 10.0 mi East 13.8 mph 19.6 mph N/A   Overcast
12:55 PM 68.0 °F 60.8 °F 78% 30.14 in 10.0 mi ENE 13.8 mph 21.9 mph N/A   Overcast
1:15 PM 69.8 °F 60.8 °F 73% 30.13 in 10.0 mi ENE 15.0 mph 21.9 mph N/A   Overcast
1:35 PM 68.0 °F 60.8 °F 78% 30.12 in 10.0 mi ENE 11.5 mph 21.9 mph N/A   Overcast
1:55 PM 68.0 °F 60.8 °F 78% 30.12 in 10.0 mi ENE 12.7 mph 19.6 mph N/A   Overcast
2:15 PM 68.0 °F 60.8 °F 78% 30.11 in 10.0 mi ENE 12.7 mph 16.1 mph N/A   Overcast
2:35 PM 68.0 °F 60.8 °F 78% 30.10 in 10.0 mi ENE 11.5 mph 20.7 mph N/A   Overcast
2:55 PM 68.0 °F 60.8 °F 78% 30.10 in 10.0 mi East 11.5 mph 17.3 mph N/A   Overcast
3:15 PM 68.0 °F 60.8 °F 78% 30.10 in 10.0 mi East 13.8 mph 18.4 mph N/A   Mostly Cloudy
3:35 PM 68.0 °F 60.8 °F 78% 30.09 in 10.0 mi East 12.7 mph 18.4 mph N/A   Overcast
3:55 PM 68.0 °F 60.8 °F 78% 30.09 in 10.0 mi ENE 11.5 mph 19.6 mph N/A   Mostly Cloudy
4:15 PM 68.0 °F 60.8 °F 78% 30.09 in 10.0 mi East 11.5 mph - N/A   Mostly Cloudy
4:35 PM 66.2 °F 60.8 °F 83% 30.09 in 10.0 mi ENE 8.1 mph 16.1 mph N/A   Overcast
4:55 PM 66.2 °F 60.8 °F 83% 30.08 in 10.0 mi East 11.5 mph 16.1 mph N/A   Overcast
5:15 PM 66.2 °F 60.8 °F 83% 30.08 in 10.0 mi ENE 9.2 mph - N/A   Overcast
5:35 PM 66.2 °F 60.8 °F 83% 30.08 in 10.0 mi ENE 9.2 mph - N/A   Overcast
5:55 PM 66.2 °F 60.8 °F 83% 30.08 in 10.0 mi East 10.4 mph - N/A   Overcast
6:15 PM 66.2 °F 60.8 °F 83% 30.08 in 10.0 mi East 10.4 mph 17.3 mph N/A   Mostly Cloudy
6:35 PM 64.4 °F 60.8 °F 88% 30.08 in 10.0 mi East 8.1 mph 17.3 mph N/A   Mostly Cloudy
6:55 PM 66.2 °F 60.8 °F 83% 30.08 in 10.0 mi East 12.7 mph 17.3 mph N/A   Mostly Cloudy
7:15 PM 66.2 °F 60.8 °F 83% 30.08 in 10.0 mi East 11.5 mph 19.6 mph N/A   Overcast
7:35 PM 66.2 °F 60.8 °F 83% 30.08 in 10.0 mi East 9.2 mph 17.3 mph N/A   Overcast
7:55 PM 66.2 °F 60.8 °F 83% 30.08 in 10.0 mi East 8.1 mph 16.1 mph N/A   Mostly Cloudy
8:15 PM 64.4 °F 60.8 °F 88% 30.08 in 10.0 mi ENE 6.9 mph - N/A   Scattered Clouds
8:35 PM 66.2 °F 60.8 °F 83% 30.08 in 10.0 mi East 11.5 mph - N/A   Mostly Cloudy
8:55 PM 66.2 °F 62.6 °F 88% 30.08 in 10.0 mi East 10.4 mph 17.3 mph N/A   Overcast
9:15 PM 66.2 °F 62.6 °F 88% 30.07 in 10.0 mi East 9.2 mph 16.1 mph N/A   Overcast
9:35 PM 66.2 °F 62.6 °F 88% 30.06 in 10.0 mi East 11.5 mph 17.3 mph N/A   Overcast
9:55 PM 66.2 °F 62.6 °F 88% 30.06 in 10.0 mi East 12.7 mph 16.1 mph N/A   Overcast
10:15 PM 68.0 °F 62.6 °F 83% 30.05 in 10.0 mi East 10.4 mph 16.1 mph N/A   Overcast
10:35 PM 68.0 °F 62.6 °F 83% 30.05 in 10.0 mi East 10.4 mph 16.1 mph N/A   Overcast
10:55 PM 68.0 °F 62.6 °F 83% 30.04 in 10.0 mi East 9.2 mph 18.4 mph N/A   Overcast
11:15 PM 68.0 °F 62.6 °F 83% 30.03 in 10.0 mi ESE 13.8 mph 21.9 mph N/A   Overcast
11:35 PM 68.0 °F 62.6 °F 83% 30.02 in 10.0 mi East 15.0 mph 20.7 mph N/A   Overcast
11:55 PM 68.0 °F 64.4 °F 88% 30.03 in 10.0 mi East 12.7 mph 19.6 mph N/A   Overcast